Stations météo

réclame
Mon MeteoGroup
Santon Downham, Grande-Bretagne (99118): Température de l'air & dewpoint: 04.07.2020 12:00:00 - 10.07.2020 12:00:00 (BST)Santon Downham, Grande-Bretagne (99118): Température de l'air -20cm & Température de l'air -100cm: 04.07.2020 12:00:00 - 10.07.2020 12:00:00 (BST)Santon Downham, Grande-Bretagne (99118): Quantités de précipitations: 04.07.2020 12:00:00 - 10.07.2020 12:00:00 (BST)
Date & Time tt [°C] td [°C] tt -20cm [°C] tt -100cm [°C] rr [mm]
10.07.2020 12:00:00 - - - - -
10.07.2020 11:00:00 - - - - -
10.07.2020 10:00:00 14,6 11,1 17,2 16,0 0,0
10.07.2020 09:00:00 14,2 12,3 - - 0,0
10.07.2020 08:00:00 12,6 11,3 - - 0,0
10.07.2020 07:00:00 12,7 12,1 - - 0,0
10.07.2020 06:00:00 12,0 11,6 - - 0,0
10.07.2020 05:00:00 12,1 11,8 - - 0,2
10.07.2020 04:00:00 12,3 11,7 - - 0,4
10.07.2020 03:00:00 12,7 12,2 - - 0,4
10.07.2020 02:00:00 13,1 12,6 - - 0,0
10.07.2020 01:00:00 13,3 12,8 - - 0,0
10.07.2020 00:00:00 13,5 12,9 - - 0,2
09.07.2020 23:00:00 13,7 13,1 - - 0,6
09.07.2020 22:00:00 13,9 13,4 - - 1,0
09.07.2020 21:00:00 14,3 13,8 - - 0,8
09.07.2020 20:00:00 15,1 14,6 - - 0,6
09.07.2020 19:00:00 15,7 15,1 - - 0,4
09.07.2020 18:00:00 16,0 15,3 - - 0,4
09.07.2020 17:00:00 16,6 15,8 - - 0,6
09.07.2020 16:00:00 16,9 15,7 - - 0,6
09.07.2020 15:00:00 17,1 15,9 - - 0,4
09.07.2020 14:00:00 17,3 16,2 - - 0,0
09.07.2020 13:00:00 - - - - 0,0
09.07.2020 12:00:00 - - - - -
09.07.2020 11:00:00 - - - - -
09.07.2020 10:00:00 - - - - -
09.07.2020 09:00:00 16,1 15,5 - - 0,4
09.07.2020 08:00:00 16,2 15,4 - - 0,0
09.07.2020 07:00:00 16,1 15,4 - - 0,2
09.07.2020 06:00:00 16,1 15,5 - - 0,2
09.07.2020 05:00:00 15,8 15,3 - - 2,8
09.07.2020 04:00:00 15,9 15,4 - - 0,8
09.07.2020 03:00:00 15,8 15,4 - - 0,6
09.07.2020 02:00:00 15,6 15,2 - - 0,6
09.07.2020 01:00:00 14,8 14,4 - - 0,2
09.07.2020 00:00:00 14,4 14,1 - - 0,8
08.07.2020 23:00:00 14,3 13,9 - - 0,6
08.07.2020 22:00:00 14,1 13,7 - - 0,6
08.07.2020 21:00:00 14,2 13,7 - - 0,4
08.07.2020 20:00:00 14,3 13,6 - - 1,0
08.07.2020 19:00:00 14,6 13,4 - - 0,4
08.07.2020 18:00:00 15,1 13,8 - - 0,0
08.07.2020 17:00:00 15,4 13,9 - - 0,0
08.07.2020 16:00:00 15,6 14,8 - - 0,0
08.07.2020 15:00:00 15,5 14,5 - - 0,4
08.07.2020 14:00:00 15,7 14,6 - - 0,0
08.07.2020 13:00:00 15,6 14,6 - - 1,4
08.07.2020 12:00:00 15,2 14,5 - - 0,2
08.07.2020 11:00:00 15,0 14,3 - - 0,6
08.07.2020 10:00:00 16,3 15,8 17,0 16,2 0,6
08.07.2020 09:00:00 15,1 14,7 - - 1,8
08.07.2020 08:00:00 14,7 14,4 - - 0,6
08.07.2020 07:00:00 14,3 14,0 - - 0,4
08.07.2020 06:00:00 13,8 13,6 - - 0,8
08.07.2020 05:00:00 13,1 12,8 - - 0,4
08.07.2020 04:00:00 12,8 12,5 - - 0,2
08.07.2020 03:00:00 12,6 12,3 - - 0,4
08.07.2020 02:00:00 12,4 12,0 - - 0,6
08.07.2020 01:00:00 12,4 11,9 - - 0,4
08.07.2020 00:00:00 12,3 11,9 - - 0,6
07.07.2020 23:00:00 12,3 11,9 - - 0,2
07.07.2020 22:00:00 12,5 12,0 - - 1,0
07.07.2020 21:00:00 12,7 12,0 - - 0,0
07.07.2020 20:00:00 13,0 12,2 - - 0,0
07.07.2020 19:00:00 13,0 12,0 - - 0,4
07.07.2020 18:00:00 13,3 11,9 - - 2,2
07.07.2020 17:00:00 14,7 12,6 - - 0,6
07.07.2020 16:00:00 15,0 12,4 - - 0,6
07.07.2020 15:00:00 16,0 10,8 - - 0,0
07.07.2020 14:00:00 16,7 11,4 - - 0,0
07.07.2020 13:00:00 16,4 12,1 - - 0,2
07.07.2020 12:00:00 18,9 9,9 - - 0,0
07.07.2020 11:00:00 18,4 9,7 - - 0,0
07.07.2020 10:00:00 17,0 9,9 17,0 16,2 0,0
07.07.2020 09:00:00 15,0 9,2 - - 0,0
07.07.2020 08:00:00 13,0 9,1 - - 0,0
07.07.2020 07:00:00 10,9 9,4 - - 0,0
07.07.2020 06:00:00 8,6 8,3 - - 0,0
07.07.2020 05:00:00 7,4 7,1 - - 0,0
07.07.2020 04:00:00 6,8 6,5 - - 0,0
07.07.2020 03:00:00 5,9 5,5 - - 0,0
07.07.2020 02:00:00 6,2 5,6 - - 0,0
07.07.2020 01:00:00 7,0 6,0 - - 0,0
07.07.2020 00:00:00 8,7 6,5 - - 0,0
06.07.2020 23:00:00 12,5 6,0 - - 0,0
06.07.2020 22:00:00 14,5 7,6 - - 0,0
06.07.2020 21:00:00 15,4 11,8 - - 0,0
06.07.2020 20:00:00 17,0 11,8 - - 0,0
06.07.2020 19:00:00 17,3 10,2 - - 0,0
06.07.2020 18:00:00 17,8 9,9 - - 0,0
06.07.2020 17:00:00 18,1 9,8 - - 0,0
06.07.2020 16:00:00 16,4 11,1 - - 0,0
06.07.2020 15:00:00 18,3 9,2 - - 0,0
06.07.2020 14:00:00 17,7 10,6 - - 0,0
06.07.2020 13:00:00 16,8 9,0 - - 0,0
06.07.2020 12:00:00 16,3 8,4 - - 0,0
06.07.2020 11:00:00 16,0 8,0 - - 0,0
06.07.2020 10:00:00 15,8 8,1 17,7 16,2 0,0
06.07.2020 09:00:00 14,4 7,8 - - 0,0
06.07.2020 08:00:00 13,5 8,4 - - 0,0
06.07.2020 07:00:00 12,7 8,5 - - 0,0
06.07.2020 06:00:00 11,7 8,2 - - 0,0
06.07.2020 05:00:00 11,6 8,1 - - 0,0
06.07.2020 04:00:00 11,6 7,5 - - 0,0
06.07.2020 03:00:00 12,6 7,5 - - 0,0
06.07.2020 02:00:00 13,5 7,6 - - 0,0
06.07.2020 01:00:00 13,9 8,1 - - 0,0
06.07.2020 00:00:00 14,4 8,2 - - 0,0
05.07.2020 23:00:00 14,4 7,9 - - 0,0
05.07.2020 22:00:00 15,5 7,7 - - 0,0
05.07.2020 21:00:00 16,7 7,1 - - 0,0
05.07.2020 20:00:00 17,7 7,4 - - 0,0
05.07.2020 19:00:00 18,6 6,6 - - 0,0
05.07.2020 18:00:00 19,5 5,5 - - 0,0
05.07.2020 17:00:00 20,2 6,0 - - 0,0
05.07.2020 16:00:00 20,5 6,4 - - 0,0
05.07.2020 15:00:00 21,1 6,8 - - 0,0
05.07.2020 14:00:00 21,2 6,9 - - 0,0
05.07.2020 13:00:00 20,1 7,3 - - 0,0
05.07.2020 12:00:00 20,5 8,3 - - 0,0
05.07.2020 11:00:00 20,2 9,1 - - 0,0
05.07.2020 10:00:00 19,8 10,6 17,7 16,2 0,0
05.07.2020 09:00:00 19,0 12,0 - - 0,0
05.07.2020 08:00:00 19,1 13,4 - - 0,0
05.07.2020 07:00:00 18,1 14,5 - - 0,0
05.07.2020 06:00:00 18,2 14,7 - - 0,0
05.07.2020 05:00:00 18,6 14,8 - - 0,0
05.07.2020 04:00:00 18,4 14,9 - - 0,0
05.07.2020 03:00:00 18,3 14,9 - - 0,0
05.07.2020 02:00:00 18,7 14,8 - - 0,0
05.07.2020 01:00:00 18,7 14,7 - - 0,0
05.07.2020 00:00:00 18,4 14,4 - - 0,0
04.07.2020 23:00:00 18,6 14,4 - - 0,0
04.07.2020 22:00:00 19,0 14,5 - - 0,0
04.07.2020 21:00:00 19,4 15,4 - - 0,0
04.07.2020 20:00:00 19,6 15,7 - - 0,0
04.07.2020 19:00:00 19,4 16,1 - - 0,0
04.07.2020 18:00:00 18,5 16,6 - - 0,4
04.07.2020 17:00:00 18,7 16,3 - - 0,0
04.07.2020 16:00:00 20,5 15,3 - - 0,0
04.07.2020 15:00:00 21,0 15,5 - - 0,0
04.07.2020 14:00:00 20,0 15,0 - - 0,0
04.07.2020 13:00:00 19,6 15,2 - - 0,0
04.07.2020 12:00:00 18,5 15,3 - - 0,0

tt = Température de l'air
td = dewpoint
tt -20cm = Température de l'air -20cm
tt -100cm = Température de l'air -100cm
rr = Quantités de précipitations

stations d'obs. à proximité